www.pogodaiklimat.ru

Погода и климат >> Архив погоды >> Австралия >> Западная Австралия >> Микатарра


ПОГОДА в Микатарре

  • Прогноз погоды в Микатарре
  • Монитор погоды в Микатарре

АРХИВ ПОГОДЫ в Микатарре

Время (UTC), дата Ветер
(напр.,м/с)
 
Видим.   Явления Облачность Т
(С)
Тd
(С)
f
(%)
Тe
(С)
Тes
(С)
Комфортность P
(гПа)
Po
(гПа)
Тmin
(С)
Tmax
(С)
R
(мм)
R24
(мм)
S
(см)
07 11.02 ЮЗ 6 н/о 8/0
[]
+39.6 -0.8 8 +36 +39 очень
жарко
1005.9 949.5
09 11.02 ЮЗ 6 н/о н/о +39.8 -0.6 8 +36 +36 очень
жарко
1005.4 949.0
10 11.02 ЮЗ 6 н/о 10/0
[]
+38.3 -0.1 9 +35 +35 очень
жарко
1005.7 949.3
12 11.02 ЮЗ 7 н/о н/о +36.5 0.0 10 +33 +33 жарко 1007.2 950.7
13 11.02 ЮЗ 5 н/о 3/0
[]
+35.5 +0.6 11 +32 +32 жарко 1007.7 951.2 +42.1
15 11.02 Ю 6 н/о н/о +32.8 +1.8 14 +30 +30 жарко 1008.4 951.9
16 11.02 Ю 7 н/о 10/0
[]
+31.7 -0.1 13 +29 +29 жарко 1008.5 952.0
18 11.02 Ю 6 н/о н/о +28.8 -2.3 13 +26 +26 жарко 1008.2 951.7
19 11.02 Ю 5 н/о н/о +27.7 -2.2 14 +25 +25 комфорт 1008.3 951.8
21 11.02 ЮВ 5 н/о н/о +26.1 -0.8 17 +24 +24 комфорт 1008.8 952.2
22 11.02 ЮВ 4 н/о н/о +25.3 -1.5 17 +23 +23 комфорт 1009.9 953.3
00 12.02 ЮВ 6 н/о н/о +28.8 -4.6 11 +26 +26 жарко 1011.2 954.5
01 12.02 ЮВ 6 н/о н/о +30.9 -5.6 9 +27 +27 жарко 1011.3 954.6 +25.2
03 12.02 ЮВ 4 н/о н/о +34.9 -6.0 7 +31 +31 жарко 1010.6 953.9
04 12.02 Ю 6 н/о н/о +37.0 -6.5 6 +33 +33 жарко 1009.9 953.3
06 12.02 ЮЗ 8 н/о н/о +38.5 -3.4 7 +34 +34 очень
жарко
1008.8 952.2
07 12.02 Ю 6 н/о н/о +38.5 -3.4 7 +34 +34 очень
жарко
1008.0 951.5
09 12.02 ЮЗ 7 н/о н/о +38.2 -3.6 7 +34 +34 очень
жарко
1007.5 951.0
10 12.02 Ю 5 н/о н/о +37.6 -2.2 8 +34 +34 очень
жарко
1007.8 951.3
12 12.02 Ю 3 н/о н/о +34.2 -3.2 9 +30 +30 жарко 1009.4 952.8
13 12.02 Ю 3 н/о н/о +31.5 -5.2 9 +28 +28 жарко 1010.1 953.5 +39.9
15 12.02 Ю 5 н/о н/о +30.8 -4.3 10 +27 +27 жарко 1009.8 953.2
16 12.02 Ю 4 н/о н/о +29.5 -4.0 11 +26 +26 жарко 1009.5 952.9
18 12.02 ЮВ 3 н/о н/о +27.0 -3.7 13 +24 +24 комфорт 1009.1 952.5
19 12.02 В 5 н/о н/о +26.8 -2.0 15 +24 +24 комфорт 1009.2 952.6
21 12.02 В 5 н/о н/о +25.7 +3.0 23 +25 +25 комфорт 1009.9 953.3
22 12.02 В 4 н/о н/о +25.0 +4.2 26 +24 +24 комфорт 1010.4 953.8
00 13.02 СВ 7 н/о н/о +30.3 +5.6 21 +29 +29 жарко 1011.4 954.7
01 13.02 СВ 6 н/о н/о +31.7 +4.5 18 +29 +29 жарко 1011.7 955.0 +25.0
03 13.02 В 4 н/о н/о +36.1 -0.3 10 +32 +32 жарко 1011.2 954.5
04 13.02 В 3 н/о н/о +37.1 -1.0 9 +33 +33 жарко 1010.4 953.8
06 13.02 З 3 н/о н/о +38.7 +0.2 9 +35 +35 очень
жарко
1008.5 952.0
07 13.02 СЗ 4 н/о 5/0
[]
+39.8 -0.6 8 +36 +42 очень
жарко
1007.8 951.3
09 13.02 СЗ 2 н/о н/о +38.5 0.0 9 +35 +35 очень
жарко
1007.1 950.6
10 13.02 СЗ 3 н/о 10/0 2000 м
[]
+37.9 +1.0 10 +34 +34 очень
жарко
1007.2 950.7
12 13.02 ЮВ 3 н/о н/о +35.7 +0.7 11 +32 +32 жарко 1007.7 951.2
13 13.02 ЮВ 3 н/о 10/0
[]
+34.7 +2.3 13 +32 +32 жарко 1007.7 951.2 +41.0
15 13.02 Ю 3 н/о н/о +33.9 +2.7 14 +31 +31 жарко 1007.5 951.0
16 13.02 В 3 н/о 9/0
[]
+33.3 +3.2 15 +30 +30 жарко 1007.7 951.2
18 13.02 В 6 н/о н/о +32.3 +2.4 15 +29 +29 жарко 1006.6 950.2
19 13.02 В 7 н/о н/о +31.6 +2.7 16 +29 +29 жарко 1006.2 949.8
21 13.02 СВ 9 н/о н/о +30.9 +2.2 16 +28 +28 жарко 1006.4 950.0
22 13.02 СВ 7 н/о 4/0
[]
+30.2 +4.0 19 +28 +28 жарко 1006.8 950.4
00 14.02 СВ 8 н/о н/о +32.8 +6.2 19 +31 +31 жарко 1008.2 951.7
01 14.02 СВ 9 н/о 4/0
[]
+34.9 +6.2 17 +33 +34 жарко 1008.3 951.8 +30.3
03 14.02 С 9 н/о н/о +38.3 +7.1 15 +36 +36 очень
жарко
1008.0 951.5
04 14.02 СЗ 7 н/о 5/0
[]
+39.4 +5.9 13 +37 +41 очень
жарко
1007.5 951.0
06 14.02 СЗ 8 н/о н/о +42.2 -0.7 7 +38 +38 очень
жарко
1006.2 949.8
07 14.02 З 7 н/о н/о +41.6 -3.2 6 +37 +37 очень
жарко
1005.6 949.2
09 14.02 З 8 н/о н/о +40.2 -2.1 7 +36 +36 очень
жарко
1005.8 949.4
10 14.02 З 7 н/о н/о +39.3 -1.0 8 +35 +35 очень
жарко
1006.3 949.9
12 14.02 З 4 н/о н/о +36.8 -1.2 9 +33 +33 жарко 1008.3 951.8
13 14.02 З 3 н/о 6/0
[]
+35.1 +0.2 11 +32 +32 жарко 1009.0 952.4 +42.9
15 14.02 В 4 н/о н/о +34.1 +6.4 18 +32 +32 жарко 1009.8 953.2
16 14.02 В 2 н/о 10/0
[]
+33.0 +10.4 25 +32 +32 жарко 1010.1 953.5
18 14.02 Ю 2 н/о н/о +29.0 +3.8 20 +27 +27 жарко 1009.7 953.1
19 14.02 Ю 3 н/о 5/0
[]
+28.9 +4.4 21 +27 +27 жарко 1009.9 953.3
21 14.02 ЮЗ 5 н/о н/о +27.2 +7.6 29 +27 +27 жарко 1010.7 954.0
22 14.02 Ю 5 н/о н/о +26.3 +7.4 30 +26 +26 жарко 1011.4 954.7
00 15.02 Ю 4 н/о н/о +29.7 +7.0 24 +29 +29 жарко 1012.7 955.9
01 15.02 Ю 4 н/о н/о +31.7 +6.7 21 +30 +30 жарко 1013.2 956.4 +26.1
03 15.02 ЮВ 3 н/о н/о +37.0 +4.0 13 +34 +34 очень
жарко
1012.5 955.7
04 15.02 З 4 н/о н/о +38.6 +1.6 10 +35 +35 очень
жарко
1011.7 955.0
06 15.02 З 4 н/о н/о +40.1 -2.2 7 +36 +36 очень
жарко
1010.4 953.8
07 15.02 З 7 н/о н/о +40.5 -1.9 7 +36 +36 очень
жарко
1010.0 953.4
09 15.02 З 3 н/о н/о +39.9 -0.5 8 +36 +36 очень
жарко
1009.7 953.1
10 15.02 ЮЗ 4 н/о н/о +39.5 -0.8 8 +36 +36 очень
жарко
1009.9 953.3
12 15.02 ЮЗ 5 н/о н/о +36.4 -0.1 10 +33 +33 жарко 1011.6 954.9
13 15.02 Ю 4 н/о н/о +34.6 -0.1 11 +31 +31 жарко 1012.5 955.7 +41.6
15 15.02 ЮЗ 4 н/о н/о +32.1 -0.9 12 +29 +29 жарко 1012.6 955.8
16 15.02 ЮЗ 4 н/о н/о +30.7 -0.8 13 +28 +28 жарко 1012.4 955.6
18 15.02 Ю 7 н/о н/о +28.5 +0.3 16 +26 +26 жарко 1011.5 954.8
19 15.02 Ю 6 н/о н/о +27.0 +2.8 21 +25 +25 комфорт 1011.3 954.6
21 15.02 Ю 4 н/о н/о +24.9 +4.6 27 +24 +24 комфорт 1011.8 955.1
22 15.02 Ю 3 н/о н/о +24.3 +5.6 30 +24 +24 комфорт 1012.5 955.7
00 16.02 ЮВ 6 н/о н/о +29.5 +6.8 24 +28 +28 жарко 1013.0 956.2
01 16.02 ЮВ 5 н/о н/о +31.9 +6.2 20 +30 +30 жарко 1013.0 956.2 +24.3
03 16.02 В 2 н/о н/о +37.5 +2.1 11 +34 +34 очень
жарко
1012.0 955.3
04 16.02 Ю 4 н/о н/о +38.1 -0.3 9 +34 +34 очень
жарко
1011.3 954.6
06 16.02 ЮЗ 6 н/о н/о +39.9 -0.5 8 +36 +36 очень
жарко
1009.8 953.2
07 16.02 ЮЗ 5 н/о н/о +39.4 -0.9 8 +36 +36 очень
жарко
1008.9 952.3
09 16.02 З 4 н/о н/о +40.1 -2.2 7 +36 +36 очень
жарко
1008.1 951.6
10 16.02 З 5 н/о н/о +39.5 -2.6 7 +35 +35 очень
жарко
1008.1 951.6
12 16.02 Ю 3 н/о н/о +35.4 -2.3 9 +31 +31 жарко 1009.5 952.9
13 16.02 ЮЗ 3 н/о н/о +33.3 -3.8 9 +29 +29 жарко 1009.9 953.3 +41.7
15 16.02 ЮЗ 3 н/о н/о +30.7 -4.4 10 +27 +27 жарко 1009.7 953.1
16 16.02 ЮЗ 3 н/о н/о +29.4 -2.9 12 +26 +26 жарко 1009.3 952.7
18 16.02 Ю 3 н/о н/о +26.3 -2.4 15 +24 +24 комфорт 1008.1 951.6
19 16.02 Ю 4 н/о н/о +25.3 -0.7 18 +24 +24 комфорт 1008.0 951.5
21 16.02 Ю 4 н/о н/о +23.3 -0.2 21 +22 +22 комфорт 1008.6 952.1
22 16.02 Ю 4 н/о н/о +23.7 +2.5 25 +23 +23 комфорт 1009.1 952.5
00 17.02 В 7 н/о н/о +29.2 +7.7 26 +28 +28 жарко 1009.6 953.0
01 17.02 В 8 н/о н/о +31.3 +8.9 25 +30 +30 жарко 1009.5 952.9 +23.1
03 17.02 В 3 н/о н/о +35.9 +6.2 16 +33 +33 жарко 1008.5 952.0
04 17.02 ЮЗ 3 н/о н/о +36.7 +2.7 12 +33 +33 жарко 1007.5 951.0
06 17.02 З 5 н/о н/о +39.7 -0.7 8 +36 +36 очень
жарко
1005.8 949.4
07 17.02 З 4 н/о н/о +39.7 -0.7 8 +36 +36 очень
жарко
1005.0 948.7
09 17.02 ЮЗ 5 н/о н/о +40.1 -2.2 7 +36 +36 очень
жарко
1004.3 948.0
10 17.02 ЮЗ 5 н/о н/о +39.1 -1.1 8 +35 +35 очень
жарко
1004.3 948.0
12 17.02 Ю 4 н/о н/о +35.5 -0.8 10 +32 +32 жарко 1005.7 949.3
13 17.02 Ю 6 н/о н/о +34.7 +2.3 13 +32 +32 жарко 1006.4 950.0 +41.3
15 17.02 ЮВ 6 н/о н/о +31.7 +5.3 19 +30 +30 жарко 1007.6 951.1
16 17.02 ЮВ 5 н/о н/о +30.6 +5.8 21 +29 +29 жарко 1007.4 950.9
18 17.02 ЮВ 5 н/о н/о +28.8 +6.8 25 +28 +28 жарко 1006.5 950.1
19 17.02 В 6 н/о н/о +28.1 +7.4 27 +27 +27 жарко 1006.2 949.8
21 17.02 В 6 н/о н/о +26.5 +8.5 32 +27 +27 жарко 1006.9 950.5
22 17.02 В 6 н/о н/о +25.7 +9.1 35 +26 +26 жарко 1007.6 951.1
00 18.02 В 7 н/о н/о +28.3 +10.0 32 +29 +29 жарко 1008.6 952.1
01 18.02 В 7 н/о н/о +30.3 +10.3 29 +30 +30 жарко 1008.9 952.3 +25.8
03 18.02 В 4 н/о н/о +34.2 +9.4 22 +33 +33 жарко 1008.4 951.9
06 18.02 Ю 4 н/о н/о +39.4 +2.2 10 +36 +36 очень
жарко
1006.4 950.0
07 18.02 СВ 3 н/о н/о +39.2 +2.0 10 +36 +36 очень
жарко
1005.8 949.4

 

Местоположение метеостанции Микатарра (Западная Австралия, Австралия): широта -26.61 долгота 118.55 высота над уровнем моря 519 м.

В архиве по умолчанию представлена погода в Микатарре за последнюю неделю. Архивные данные за месяц целиком и за предыдущие месяцы, начиная с января 2011 года, Вы можете получить, выбрав интересующий диапазон дат из раскрывающегося списка и нажав кнопку "Ввод!".


*Определитесь, кто Вы:
робот инопланетянин человек

Внимание! Время в таблицах - всемирное. Для получения местного времени необходимо прибавить поправку, которая равна 8 ч.

Смотрите также архив погоды в соседних городах и на ближайших метеорологических станциях:

Погода в Маунт Магнет (Западная Австралия, Австралия) (181 км)
Погода в Леинстере (Западная Австралия, Австралия) (253 км)
Погода в Леоноре (Западная Австралия, Австралия) (372 км)
Погода в Ньюмане (Западная Австралия, Австралия) (378 км)
Погода в Мораве (Западная Австралия, Австралия) (381 км)
Погода в Параберду (Западная Австралия, Австралия) (391 км)
Погода в Лавертоне (Западная Австралия, Австралия) (441 км)
Погода в Дауоллину (Западная Австралия, Австралия) (448 км)
Погода в Джеральдтоне (Западная Австралия, Австралия) (451 км)
Погода в Шарк-Бэе (Западная Австралия, Австралия) (502 км)

Пояснения к столбцам:

Ветер - указаны скорость ветра в м/с - средняя за 10 мин, порывы в срок и между сроками (в фигурных скобках) и направление, откуда дует ветер: С - северный, СВ - северо-восточный, В - восточный, ЮВ - юго-восточный, Ю - южный, ЮЗ - юго-западный, З - западный, СЗ - северо-западный.
Видимость - горизонтальная дальность видимости в метрах или километрах. При видимости от 1 до 10 км при отсутствии осадков обычно наблюдается дымка, при ухудшении видимости до 1 км и менее - туман. В сухую погоду видимость может ухудшаться дымом, пылью или мглою.
Явления - указаны атмосферные явления, наблюдавшиеся в срок или в последний час перед сроком; фигурными скобками обозначены явления, наблюдавшиеся между сроками (за 1-3 часа до срока); квадратными скобками обозначены град или гололедные отложения с указанием их диаметра в мм.
Облачность - указаны через наклонную черту общая и нижняя облачность в баллах и высота нижней границы облаков в метрах; квадратными скобками обозначены формы облаков: Ci - перистые, Cs - перисто-слоистые, Cc - перисто-кучевые, Ac - высококучевые, As - высокослоистые, Sc - слоисто-кучевые, Ns - слоисто-дождевые, Cu - кучевые, Cb - кучево-дождевые. Подробнее классификацию облаков см. в Атласе облаков (PDF).
T - Температура воздуха - температура, измеренная на высоте 2 м над землей.
Td - Температура точки росы - температура, при понижении до которой содержащийся в воздухе водяной пар достигнет насыщения.
f - Относительная влажность воздуха - влажноcть воздуха, измеренная на высоте 2 м над землей.
Te - Эффективная температура - температура, которую ощущает одетый по сезону человек в тени. Характеристика душности погоды. При расчете учитывается влияние влажности воздуха и скорости ветра на теплоощущения человека.
Tes - Эффективная температура на солнце - температура, которую ощущает человек, с поправкой на солнечный нагрев. Характеристика знойности погоды. Зависит от высоты солнца над горизонтом, облачности и скорости ветра. Ночью, в пасмурную погоду, а также при ветре 12 м/с и более поправка равна нулю.
P - Атмосферное давление - приведенное к уровню моря атмосферное давление.
Po - Атмосферное давление - измеренное на уровне метеостанции атмосферное давление.
Tmin - Минимальная температура - минимум температуры воздуха на высоте 2 м над землей.
Tmax - Максимальная температура - максимум температуры воздуха на высоте 2 м над землей.
R - Количество осадков - Количество выпавших осадков за период времени, мм. При наведении курсора мыши на число - период времени, за который выпало указанное количество осадков.
R24 - Количество осадков - Количество выпавших осадков за 24 часа, мм.
S - Снежный покров - Высота снежного покрова, см. При наведении курсора мыши на число - состояние снежного покрова и степень покрытия местности в баллах.